Ireland West Airport Knock, Ireland

9:25 AM GMT on January 22, 2018 (GMT +0000)
Connaught

Weather History for EIKN - October, 2011

Change the Weather History Date:

Wednesday, October 5, 2011

  Actual Average Record
Temperature  
Mean Temperature 54 °F -  
Max Temperature 57 °F - - ()
Min Temperature 50 °F - - ()
Degree Days  
Heating Degree Days 12    
Growing Degree Days 4 (Base 50)    
Moisture  
Dew Point 54 °F    
Average Humidity 95    
Maximum Humidity 100    
Minimum Humidity 88    
Precipitation  
Precipitation 0.31 in - - ()
Sea Level Pressure  
Sea Level Pressure 29.68 in    
Wind  
Wind Speed 17 mph ()    
Max Wind Speed 26 mph    
Max Gust Speed 39 mph    
Visibility 4.7 miles    
Events Rain    
T = Trace of Precipitation, MM = Missing Value Source: Averaged Metar Reports

Daily Weather History Graph

Daily Weather History Graph

Search for Another Location

Airport or City:

Trip Planner

Search our weather history database for the weather conditions in past years. The results will help you decide how hot, cold, wet, or windy it might be!

Date:

Astronomy

Oct. 05, 2011 Rise Set
Actual Time 7:43 AM IST 7:02 PM IST
Civil Twilight 7:08 AM IST 7:38 PM IST
Nautical Twilight 6:27 AM IST 8:18 PM IST
Astronomical Twilight 5:45 AM IST 9:00 PM IST
Moon 4:24 PM IST (10/5) 12:19 AM IST (10/5)
Length of Visible Light 12h 29m
Length of Day
11h 19m
Waxing Gibbous, 64% of the Moon is Illuminated
Oct 5
Waxing Gibbous
Oct 12
Full
Oct 20
Last Quarter
Oct 26
New
Nov 2
First Quarter

Hourly Weather History & Observations

Time (IST) Temp. Dew Point Humidity Pressure Visibility Wind Dir Wind Speed Gust Speed Precip Events Conditions
1:00 AM 55 °F 55 °F 100% 29.82 in - SSW 17.9 mph - -  
6:00 AM 57.2 °F 55.4 °F 94% 29.71 in 1.6 mi SW 20.7 mph 39.1 mph N/A   Light Drizzle
6:30 AM 57.2 °F 55.4 °F 94% 29.68 in 5.6 mi SSW 21.9 mph - N/A Rain Light Rain
7:00 AM 56 °F 56 °F 100% 29.70 in 3 mi SSW 22.4 mph - - Rain Light Rain
7:00 AM 57.2 °F 55.4 °F 94% 29.68 in 3.1 mi SSW 23.0 mph 35.7 mph N/A Rain Light Rain
7:30 AM 57.2 °F 55.4 °F 94% 29.68 in 1.6 mi SW 19.6 mph - N/A Rain Light Rain
8:00 AM 57.2 °F 55.4 °F 94% 29.68 in 1.6 mi SW 20.7 mph 33.4 mph N/A Rain Light Rain
8:30 AM 57.2 °F 55.4 °F 94% 29.68 in 3.1 mi SW 20.7 mph 32.2 mph N/A Rain Light Rain
9:00 AM 57.2 °F 55.4 °F 94% 29.68 in 3.1 mi SW 19.6 mph 32.2 mph N/A Rain Light Rain
9:30 AM 57.2 °F 55.4 °F 94% 29.68 in 2.5 mi SW 18.4 mph - N/A Rain Light Rain
10:00 AM 57.2 °F 57.2 °F 100% 29.68 in 2.8 mi SW 18.4 mph 31.1 mph N/A Rain Light Rain
10:30 AM 57.2 °F 57.2 °F 100% 29.68 in 3.7 mi SW 16.1 mph 27.6 mph N/A Rain Light Rain
11:00 AM 57.2 °F 57.2 °F 100% 29.68 in 5.0 mi SW 12.7 mph - N/A Rain Light Rain
11:30 AM 57.2 °F 57.2 °F 100% 29.68 in 3.7 mi SW 16.1 mph - N/A Rain Light Rain
12:00 PM 57.2 °F 57.2 °F 100% 29.65 in 6.2 mi SW 13.8 mph - N/A Rain Light Rain
12:30 PM 57.2 °F 57.2 °F 100% 29.65 in 1.9 mi SW 15.0 mph - N/A Rain Heavy Rain
1:00 PM 55 °F 55 °F 100% 29.69 in 3 mi West 24.6 mph - - Rain Rain
1:00 PM 55.4 °F 55.4 °F 100% 29.68 in 3.1 mi West 25.3 mph - N/A Rain Rain
1:30 PM 55.4 °F 53.6 °F 94% 29.68 in 3.7 mi WSW 24.2 mph 35.7 mph N/A Rain Light Rain
2:00 PM 55.4 °F 53.6 °F 94% 29.65 in 6.2 mi WSW 20.7 mph 34.5 mph N/A   Mostly Cloudy
2:30 PM 55.4 °F 53.6 °F 94% 29.68 in 6.2 mi WSW 21.9 mph - N/A   Mostly Cloudy
3:00 PM 55.4 °F 51.8 °F 88% 29.65 in 6.2 mi WSW 21.9 mph 35.7 mph N/A   Mostly Cloudy
3:30 PM 55.4 °F 51.8 °F 88% 29.65 in 6.2 mi WSW 23.0 mph 35.7 mph N/A   Partly Cloudy
4:00 PM 53.6 °F 51.8 °F 94% 29.65 in 6.2 mi WSW 26.5 mph - N/A Rain Light Rain Showers
4:30 PM 53.6 °F 51.8 °F 94% 29.68 in 6.2 mi West 18.4 mph - N/A   Scattered Clouds
5:00 PM 50.0 °F 50.0 °F 100% 29.68 in 5.0 mi West 18.4 mph - N/A Rain Light Rain Showers
5:30 PM 51.8 °F 48.2 °F 88% 29.68 in 3.7 mi West 16.1 mph 27.6 mph N/A Rain Light Rain Showers
6:00 PM 50.0 °F 48.2 °F 94% 29.68 in 6.2 mi West 15.0 mph - N/A   Scattered Clouds
6:30 PM 50.0 °F 48.2 °F 94% 29.68 in 6.2 mi WSW 12.7 mph - N/A   Mostly Cloudy
7:00 PM 50 °F 47 °F 88% 29.72 in 19 mi West 11.2 mph - -   Partly Cloudy
7:00 PM 50.0 °F 48.2 °F 94% 29.71 in 6.2 mi West 11.5 mph - N/A   Mostly Cloudy